Location: Petržalka
(48.1109°N, 17.1116°E)
Time: 11:11:45
(UTC+02:00)

N. Korean satellite - Visible Passes

Search period start: 19 October 2019 00:00
Search period end: 28 October 2019 23:00
Orbit: 455 x 508 km, 97.2° (Epoch: 18 October)

Date Brightness Start Highest point End Pass type
(mag) Time Alt. Az. Time Alt. Az. Time Alt. Az.
19 Oct 10.3 05:41:30 10° ENE 05:42:57 12° E 05:44:25 10° ESE visible
20 Oct 10.1 19:01:52 10° WSW 19:03:42 14° W 19:05:33 10° WNW visible
21 Oct 8.5 06:22:42 10° NNE 06:26:03 35° E 06:29:26 10° SSE visible
21 Oct 9.1 18:35:16 10° SSW 18:38:12 26° W 18:41:10 10° NW visible
22 Oct 9.8 05:57:58 10° NE 06:00:36 19° E 06:03:15 10° SE visible
24 Oct 7.4 06:39:58 10° NNE 06:43:35 57° E 06:47:12 10° S visible
24 Oct 9.9 18:53:27 10° SW 18:55:46 17° W 18:58:06 10° NW visible
25 Oct 8.9 06:14:57 10° NE 06:18:11 29° E 06:21:25 10° SSE visible
25 Oct 8.7 18:27:09 10° SSW 18:30:16 32° W 18:33:28 10° NNW visible
26 Oct 10.0 05:50:23 10° NE 05:52:42 16° E 05:55:01 10° SE visible
27 Oct 10.4 18:12:28 10° WSW 18:13:22 11° W 18:14:16 10° WNW visible
28 Oct 7.9 05:32:08 10° NNE 05:35:42 46° E 05:39:16 10° S visible
28 Oct 9.6 17:45:09 10° SW 17:47:48 20° W 17:50:30 10° NW visible
